Location: Clinton NY
(43.0598°N, 75.3602°W)
Time: 14:19:56
(UTC-04:00)

ISS - All Passes

Search period start: 29 May 2015 00:00
Search period end: 08 June 2015 00:00
Orbit: 399 x 404 km, 51.6° (Epoch: 29 May)

Date Brightness Start Highest point End Pass type
(mag) Time Alt. Az. Time Alt. Az. Time Alt. Az.
29 May - 00:38:55 10° W 00:41:54 33° NNW 00:44:54 10° NE visible
29 May - 02:16:40 10° NW 02:19:00 18° N 02:21:20 10° NE visible
29 May - 03:53:21 10° NW 03:56:11 26° NNE 03:59:01 10° ENE visible
29 May - 05:29:35 10° WNW 05:32:49 65° SW 05:36:03 10° SE daylight
29 May - 22:09:47 10° S 22:12:19 21° SE 22:14:54 10° E night (unlit)
29 May - 23:45:22 10° WSW 23:48:32 50° NNW 23:51:44 10° NE visible
30 May - 01:23:03 10° WNW 01:25:29 19° N 01:27:57 10° NE visible
30 May - 03:00:09 10° NW 03:02:44 21° NNE 03:05:18 10° ENE visible
30 May - 04:36:19 10° NW 04:39:34 68° NNE 04:42:50 10° ESE visible
30 May - 06:13:37 10° W 06:15:41 16° SW 06:17:40 10° S daylight
30 May - 21:18:11 10° SSE 21:19:15 11° SE 21:20:27 10° ESE visible
30 May - 22:52:00 10° WSW 22:55:15 89° NNW 22:58:31 10° ENE visible
31 May - 00:29:19 10° WNW 00:32:00 23° NNW 00:34:41 10° NE visible
31 May - 02:06:51 10° NW 02:09:13 18° N 02:11:36 10° NE visible
31 May - 03:43:07 10° NW 03:46:15 41° NNE 03:49:22 10° E visible
31 May - 05:19:42 10° WNW 05:22:35 29° SW 05:25:26 10° SSE daylight
31 May - 21:58:54 10° SW 22:02:01 47° SE 22:05:11 10° ENE visible
31 May - 23:35:38 10° W 23:38:33 30° NNW 23:41:29 10° NE visible
01 Jun - 01:13:22 10° NW 01:15:41 18° N 01:18:00 10° NE visible
01 Jun - 02:49:57 10° NW 02:52:50 28° NNE 02:55:44 10° E visible
01 Jun - 04:26:13 10° WNW 04:29:25 55° SW 04:32:37 10° SE visible
01 Jun - 21:06:10 10° SSW 21:08:52 25° SE 21:11:37 10° E visible
01 Jun - 22:42:01 10° WSW 22:45:09 45° NNW 22:48:18 10° NE visible
02 Jun - 00:19:44 10° NW 00:22:08 19° N 00:24:33 10° NE visible
02 Jun - 01:56:44 10° NW 01:59:21 22° NNE 02:01:59 10° ENE visible
02 Jun - 03:32:54 10° NW 03:36:10 79° NNE 03:39:25 10° ESE visible
02 Jun - 05:10:30 10° W 05:12:12 13° SW 05:13:49 10° SSW daylight
02 Jun - 20:14:08 10° SSE 20:15:46 13° SE 20:17:28 10° E daylight
02 Jun - 21:48:34 10° WSW 21:51:48 77° NNW 21:55:04 10° NE visible
02 Jun - 23:26:00 10° WNW 23:28:37 22° NNW 23:31:13 10° NE visible
03 Jun - 01:03:25 10° NW 01:05:50 19° N 01:08:15 10° NE visible
03 Jun - 02:39:39 10° NW 02:42:49 45° NNE 02:45:58 10° ESE visible
03 Jun - 04:16:21 10° W 04:19:06 25° SW 04:21:48 10° SSE visible
03 Jun - 20:55:22 10° SW 20:58:32 56° SE 21:01:44 10° ENE daylight
03 Jun - 22:32:15 10° W 22:35:07 28° NNW 22:37:59 10° NE visible
04 Jun - 00:09:57 10° NW 00:12:16 18° N 00:14:35 10° NE visible
04 Jun - 01:46:27 10° NW 01:49:23 30° NNE 01:52:21 10° E visible
04 Jun - 03:22:46 10° WNW 03:25:55 47° SW 03:29:03 10° SE visible
04 Jun - 20:02:29 10° SSW 20:05:19 29° SE 20:08:12 10° ENE daylight
04 Jun - 21:38:34 10° W 21:41:40 40° NNW 21:44:45 10° NE visible
04 Jun - 23:16:20 10° NW 23:18:42 18° N 23:21:04 10° NE visible
05 Jun - 00:53:13 10° NW 00:55:54 23° NNE 00:58:35 10° ENE visible
05 Jun - 02:29:23 10° WNW 02:32:39 90° SW 02:35:54 10° SE visible
05 Jun - 04:07:28 10° WSW 04:08:38 11° SW 04:09:41 10° SSW night (unlit)
05 Jun - 19:10:11 10° S 19:12:10 16° SE 19:14:14 10° E daylight
05 Jun - 20:45:02 10° WSW 20:48:16 67° NNW 20:51:31 10° NE daylight
05 Jun - 22:22:34 10° WNW 22:25:08 21° NNW 22:27:41 10° NE visible
05 Jun - 23:59:54 10° NW 00:02:20 19° N 00:04:48 10° ENE visible
06 Jun - 01:36:06 10° NW 01:39:17 51° NNE 01:42:29 10° ESE visible
06 Jun - 03:12:56 10° W 03:15:31 21° SW 03:18:02 10° S night (unlit)
06 Jun - 19:51:44 10° SW 19:54:57 66° SE 19:58:11 10° ENE daylight
06 Jun - 21:28:47 10° WNW 21:31:35 26° NNW 21:34:23 10° NE visible
06 Jun - 23:06:26 10° NW 23:08:45 18° N 23:11:05 10° NE visible
07 Jun - 00:42:51 10° NW 00:45:51 33° NNE 00:48:51 10° E visible
07 Jun - 02:19:13 10° WNW 02:22:18 40° SW 02:25:22 10° SSE visible
07 Jun - 18:58:45 10° SSW 19:01:41 33° SE 19:04:41 10° ENE daylight
07 Jun - 20:35:02 10° W 20:38:05 36° NNW 20:41:08 10° NE daylight
07 Jun - 22:12:48 10° NW 22:15:09 18° N 22:17:29 10° NE visible
07 Jun - 23:49:36 10° NW 23:52:20 24° NNE 23:55:05 10° ENE visible
